971  
ASUS43 KDTX 050910  
RWRMI  
MICHIGAN HOURLY REGIONAL WEATHER ROUNDUP  
NATIONAL WEATHER SERVICE DETROIT/PONTIAC MI  
500 AM EDT TUE MAY 05 2015  
 
NOTE: "FAIR" INDICATES FEW OR NO CLOUDS BELOW 12,000 FEET WITH NO  
SIGNIFICANT WEATHER AND/OR TO VISIBILITY
.  
 
MIZ047>049-052>055-059>063-066>070-074>076-081>083-051000-  
SOUTHEAST LOWER MICHIGAN  
 
CITY SKY/WX TMP DP RH WIND PRES REMARKS
 
ADRIAN CLOUDY 58 50 75 E9 30.22R  
ALMA CLOUDY 53 38 56 NE7 30.25R  
ANN ARBOR MOCLDY 57 36 45 E9 30.22R  
BAD AXE PTCLDY 44 36 72 N5 30.27S  
CARO MOCLDY 47 37 70 E6 30.27R  
DETROIT CITY PTCLDY 55 38 52 NE13 30.24R  
DETROIT CLOUDY 59 38 45 N8 30.23R  
FLINT MOCLDY 54 35 48 E12 30.25R  
GROSSE ILE PTCLDY 55 45 67 NE12 30.21R  
HILLSDALE CLOUDY 58 56 91 E6 30.20R  
HOWELL CLOUDY 55 38 52 NE6 30.23R  
 
CITY SKY/WX TMP DP RH WIND PRES REMARKS
 
JACKSON CLOUDY 58 42 55 E8 30.21R  
LAMBERTVILLE MOCLDY 59 54 82 E5 30.22R  
LANSING CLOUDY 53 43 68 NE7 30.23R  
LAPEER CLOUDY 50 35 55 E5 30.26R  
MASON CLOUDY 54 42 64 NE6 30.23R  
MONROE MOCLDY 57 43 58 NE10 30.21R  
PONTIAC MOCLDY 53 34 48 NE9 30.23S  
PORT HOPE N/A 46 38 73 NW9 30.25S  
PORT HURON CLOUDY 50 36 57 N7 30.26R  
TRI CITIES CLOUDY 54 42 64 NE8 30.26R  
MIDLAND FAIR 51 36 57 CALM 30.26R  
TROY MOCLDY 55 36 47 NE9 30.26R  
SAGINAW HB MOCLDY 50 41 71 E8 30.26R  

 
MIZ043>046-050>051-056>058-064>065-071>073-077>080-051000-  
SOUTHWEST LOWER MICHIGAN  
 
CITY SKY/WX TMP DP RH WIND PRES REMARKS
 
BATTLE CREEK CLOUDY 56 41 57 NE9 30.21R  
BENTON HARBOR CLOUDY 56 48 74 CALM 30.19R  
BIG RAPIDS CLOUDY 48 37 65 CALM 30.25R  
COLDWATER MOCLDY 54 50 85 E3 30.19S  
FREMONT CLOUDY 53 35 50 E8 30.23S  
HOLLAND CLOUDY 56 40 55 E8 30.21R  
GRAND RAPIDS CLOUDY 55 40 56 E8 30.22R  
IONIA FAIR 53 43 67 NE8 30.23R  
KALAMAZOO MOCLDY 56 41 57 CALM 30.20R  
LUDINGTON CLOUDY 48 37 65 NE5 30.26R  
MARSHALL CLOUDY 54 42 65 W5 30.20R  
MOUNT PLEASANT CLOUDY 50 39 65 N3 30.26R  
MUSKEGON CLOUDY 55 37 50 NE9 30.22S  
SOUTH HAVEN MOCLDY 56 45 64 E3 30.19R  

 
MIZ016>042-051000-  
NORTHERN LOWER MICHIGAN  
 
CITY SKY/WX TMP DP RH WIND PRES REMARKS
 
ALPENA PTCLDY 40 34 79 NW5 30.28R  
BEAVER ISLAND PTCLDY 32 31 99 CALM 30.30S  
BELLAIRE MOCLDY 33 32 95 CALM 30.30R  
CADILLAC CLOUDY 38 32 78 CALM 30.26R  
CHARLEVOIX PTCLDY 38 35 90 CALM 30.32R  
FRANKFORT CLOUDY 51 30 44 E7 30.27R  
GAYLORD PTCLDY 43 35 73 N3 30.28R  
GRAYLING MOCLDY 32 30 93 S3 30.28R  
HARBOR SPRINGS PTCLDY 34 32 92 CALM 30.29S  
HOUGHTON LAKE CLOUDY 36 33 89 NE5 30.28 WCI 32  
MANISTEE CLOUDY 46 32 57 E3 30.27R  
OSCODA MOCLDY 34 32 91 W5 30.27R WCI 30  
PELLSTON CLEAR 28 26 92 CALM 30.31  
ROGERS CITY PTCLDY 38 35 87 CALM 30.30S  
TRAVERSE CITY MOCLDY 37 34 89 CALM 30.28R  

 
MIZ007>008-015-051000-  
EASTERN UPPER MICHIGAN  
 
CITY SKY/WX TMP DP RH WIND PRES REMARKS
 
KINROSS CLEAR 34 34 100 W5 30.30R WCI 30  
MACKINAC ISLAN CLEAR 40 35 84 N6 30.30R  
NEWBERRY CLEAR 36 33 92 CALM 30.31R  
S. S. MARIE CLEAR 37 33 85 W3 30.29R  
MUNISING N/A 38 31 76 S9 30.29S WCI 31  

 
MIZ004>006-011>014-085-051000-  
CENTRAL UPPER MICHIGAN  
 
CITY SKY/WX TMP DP RH WIND PRES REMARKS
 
MANISTIQUE CLEAR 32 30 95 CALM 30.30S  
ESCANABA CLEAR 34 30 86 CALM 30.30R  
MENOMINEE MOCLDY 41 34 75 N5 30.29S  
SAWYER-GWINN CLEAR 32 29 88 CALM 30.30R  

 
MIZ001>003-009>011-084-051000-  
WESTERN UPPER MICHIGAN  
 
CITY SKY/WX TMP DP RH WIND PRES REMARKS
 
IRON MOUNTAIN CLEAR 35 33 92 CALM 30.30R  
HOUGHTON CLEAR 40 29 64 NW5 30.27S  
COPPER HARBOR N/A 47 32 56 W8 30.27R  
IRONWOOD CLEAR 34 30 86 CALM 30.26S  

 
 
ABBREVIATIONS USED IN REMARKS  
TC - TEMPERATURE IN CELSIUS  
WCI - WIND CHILL INDEX  
HX - HEAT INDEX  
VSB - VISIBILITY  
 
CLICK HERE TO GO TO PREVIOUS BULLETINS.

The Nexlab MI Page Main Text Page